User: anonymous
Location: Wawayanda State Park
(41.1833°N, 74.4333°W)
Time: 07:59:55
(UTC-04:00)
Language:

RESURS DK-1 - Orbit

View from above orbital plane
View from above orbital plane
View from above satellite
View from above satellite

Ground track
Ground track

The orbit data is extracted from the following two-line orbital elements,

1 29228U 06021A   14238.31574329  .00000621  00000-0  56363-4 0  1688
2 29228 069.9364 186.1207 0002642 148.1548 324.8659 15.00767387454095
Epoch (UTC): 26 August 2014 07:34:40
Eccentricity: 0.0002642
inclination: 69.9364°
perigee height: 563 km
apogee height: 566 km
right ascension of ascending node: 186.1207°
argument of perigee: 148.1548°
revolutions per day: 15.00767387
mean anomaly at epoch: 324.8659°
orbit number at epoch: 45409

The dashed part of the orbit path shows where the satellite is in the earth's shadow,  

DLR